weather.gov     
National Weather Service

Terminal Aerodrome Forecast
NWS Homepage
This page is being discontinued on March 12, 2014.
The same data is available at this site. Please update your bookmarks.
Thank you, and we apologize for the inconvenience.
Please send an email to SR-SRH.Webmaster@noaa.gov with any concerns.


Current Version
Previous Version:    01  02  03  04  05  06  07  08  09  10  11  12  13  14  15  16  17  18  19  20  21  22  23  
[Printable]
782
FTUS44 KMRX 312325
TAFCHA
TAF
KCHA 312325Z 0100/0124 04003KT P6SM SCT050 BKN150
     FM010600 04002KT P6SM OVC100
     FM011000 01005KT P6SM SCT030 OVC100
     FM011800 35006KT P6SM SCT040 BKN120=




782
FTUS44 KMRX 312325
TAFCHA
TAF
KCHA 312325Z 0100/0124 04003KT P6SM SCT050 BKN150
     FM010600 04002KT P6SM OVC100
     FM011000 01005KT P6SM SCT030 OVC100
     FM011800 35006KT P6SM SCT040 BKN120=


U.S. Dept. of Commerce
NOAA National Weather Service
1325 East West Highway
Silver Spring, MD 20910
E-mail: w-nws.webmaster@noaa.gov
Page last modified: May 16, 2007
NATIONAL WEATHER SERVICE: for Safety, for Work, for Fun - FOR LIFE